Regional Weather Roundup
Issued by NWS

Home | Current Version | Previous Version | Graphics & Text | Print | Product List | Glossary On
Versions: 1 2 3 4 5 6 7 8 9 10 11 12 13 14 15 16 17 18 19 20 21 22 23 24 25 26 27 28 29 30 31 32 33 34 35 36 37 38 39 40 41 42 43 44 45 46 47 48 49 50
000
ASUS45 KSLC 260110
RWRUT

UTAH REGIONAL WEATHER ROUNDUP
NATIONAL WEATHER SERVICE SALT LAKE CITY UT
600 PM MST WED FEB 25 2015

UTZ001>011-023>025-260200-

NORTHERN UTAH

CITY           SKY/WX    TMP DP  RH WIND       PRES   REMARKS
BRIGHAM CITY     N/A     47  17  29 NW7       30.08R
HILL AFB         N/A     45  13  27 N7        30.06R
LOGAN            N/A     45  18  34 N13       30.07
OGDEN            N/A     46  18  32 N12       30.06R
PROVO AIRPORT  PTCLDY    46  18  31 NW12G17   30.06R
SALT LAKE CITY   N/A     49  21  33 NW13      30.06S
VERNAL           N/A     37  25  61 N9G24     30.01R WCI  30
WENDOVER         N/A     54  12  19 N7        30.06R
HEBER CITY       N/A     41  14  33 N5        30.04R
WEST JORDAN    CLEAR     46  21  36 NW10      30.07S

$$

UTZ012>022-026-027-260200-

SOUTHERN/CENTRAL UTAH

CITY           SKY/WX    TMP DP  RH WIND       PRES   REMARKS
BLANDING         N/A     34  27  76 CALM      30.04S
BRYCE CANYON     N/A     37  17  44 NW22G29   30.07R WCI  26
CEDAR CITY       N/A     44  24  45 CALM      30.05F
DELTA            N/A     49   8  18 N10       30.05S
HANKSVILLE       N/A     54  12  19 NW18G25   29.97S
MILFORD          N/A     51  15  23 NE8       30.03F
MOAB/CYNLANDS    N/A     51   9  18 NW17G23   29.89R
PRICE            N/A     45  10  24 NW16G30   29.98R
ST GEORGE        N/A     59  27  29 CALM      30.02S

$$

REGIONAL REPORTS     COLORADO/ARIZONA

CITY           SKY/WX    TMP DP  RH WIND       PRES   REMARKS
CRAIG, CO      CLOUDY    30  23  75 NW10      30.00R WCI  21
GRAND JUNCTION CLOUDY    42  26  53 NE5G20    29.96R
RIFLE          MOCLDY    37  30  75 W13       29.96R WCI  29
MONTROSE         N/A     35  26  69 CALM      29.98S
CORTEZ           N/A     36  26  67 W5        29.97S WCI  32
PAGE, AZ       NOT AVBL
GRAND CANYON     N/A     44  22  41 N5        30.07S
KINGMAN        NOT AVBL
FLAGSTAFF        N/A     44  19  36 NW6       30.07R

$$

REGIONAL REPORTS    NEVADA/IDAHO/WYOMING

CITY           SKY/WX    TMP DP  RH WIND       PRES   REMARKS
LAS VEGAS, NV  MOCLDY    68  23  18 SE6       29.93F
ELY              N/A     47   8  20 W10       30.10R
ELKO             N/A     50  15  24 VRB5      30.12S
POCATELLO, ID    N/A     41  15  35 NE7       30.10F
BURLEY           N/A     46  17  31 W15G22    30.07F
EVANSTON, WY     N/A     32  17  54 N10       30.05R WCI  24
ROCK SPRINGS   FLURRIES  22  16  78 NE18      30.07R WCI   7
KEMMERER         N/A     30  14  51 NW9       30.05R WCI  22

$$



USA.gov is the U.S. government's official web portal to all federal, state and local government web resources and services.